Location: Carrières
(48.9495°N, 2.0407°E)
Time: 18:57:08
(UTC+00:00)

Altair - Pass Details

Date: 29 April 2024
Orbit: 1502 x 1682 km, 47.2° (Epoch: 21 May)

Event Time Altitude Azimuth Distance (km) Brightness Sun altitude
Rises 19:50:14 0° 275° (W) 4,924 11.4 -7.3°
Reaches altitude 10° 19:53:26 10° 274° (W) 3,923 10.7 -7.8°
Maximum altitude 20:03:29 79° 191° (S) 1,662 7.6 -9.1°
Drops below altitude 10° 20:13:10 10° 107° (ESE) 3,789 9.0 -10.4°
Enters shadow 20:13:19 - 107° (ESE) 3,839 9.0 -10.4°
